LDPE-3A

Last updated on Tue Oct 08 2024 00:02:42 GMT+0000 (Coordinated Universal Time)

1 55264U 23008B 24281.39215906 -.00000266 00000+0 00000+0 0 9990 2 55264 0.6168 88.2977 0000380 169.7538 349.1933 1.00556669 5618
UTC large
Height (km)
Speed (km/s)
/
Latitude / Longitude
Inclination (degrees)
Orbital Period (minutes)
Azimuth
Elevation
Range (km)
Doppler Factor

Next 0 passes for location: London (51.5072 / 0.1276)

Sorry there are no passes over London.